Regional Weather Roundup
Issued by NWS

Home | Current Version | Previous Version | Text Only | Print | Product List | Glossary Off
Versions: 1 2 3 4 5 6 7 8 9 10 11 12 13 14 15 16 17 18 19 20 21 22 23 24 25 26 27

000
ASUS45 KTFX 301610
RWRMT
MONTANA REGIONAL WEATHER ROUNDUP
NATIONAL WEATHER SERVICE GREAT FALLS MT
1000 AM MDT SAT APR 30 2016

NOTE: "FAIR" INDICATES FEW OR NO CLOUDS BELOW 12000 FEET WITH NO
SIGNIFICANT WEATHER AND/OR OBSTRUCTIONS TO VISIBILITY.

MTZ001>007-043-301700-
WEST OF THE DIVIDE

CITY           SKY/WX    TMP DP  RH WIND       PRES   REMARKS
KALISPELL      SUNNY     52  35  52 N8        30.19R
MISSOULA       CLOUDY    44  40  85 W6        30.21R
BUTTE          LGT RAIN  40  33  76 CALM      30.14R
MULLAN PASS    CLOUDY    35  34  96 N3        30.17R
ANACONDA         N/A     41  36  81 N8        30.15R
DEER LODGE       N/A     43  36  75 NW8       30.18R
EUREKA           N/A     52  37  58 CALM      30.23R
HAMILTON         N/A     43  37  81 NW5       30.18R
LIBBY            N/A     48  39  71 CALM      30.22R
PLAINS           N/A     47  42  82 CALM      30.20R
$$

MTZ008-052>055-301700-
SOUTHWEST MONTANA

CITY           SKY/WX    TMP DP  RH WIND       PRES   REMARKS
BOZEMAN        CLOUDY    43  34  70 W3        30.14R
DILLON         CLOUDY    44  33  65 NE18      30.10R
ENNIS          CLOUDY    41  32  70 N20G26    30.14R
THREE FORKS      N/A     43  43 100 CALM      30.12R
TWIN BRIDGES     N/A     45  30  55 N22       30.07
$$

MTZ009-010-012-014-046-048-049-054-301700-
EAST SLOPES AND CENTRAL MONTANA

CITY           SKY/WX    TMP DP  RH WIND       PRES   REMARKS
CUT BANK       PTSUNNY   45  38  76 CALM      30.23R
GREAT FALLS    CLOUDY    46  36  68 VRB5      30.19R
MALMSTROM AFB  PTSUNNY   46  38  75 N2        30.20R
HELENA         CLOUDY    48  35  60 N8        30.17R
CHOTEAU          N/A     43  39  87 NE7       30.22R
CONRAD           N/A     45  44  96 N6        30.22R
$$

MTZ011-013-016-021-045-047-050-051-301700-
NORTH CENTRAL MONTANA

CITY           SKY/WX    TMP DP  RH WIND       PRES   REMARKS
HAVRE          CLOUDY    49  41  74 E8        30.24R
LEWISTOWN      CLOUDY    45  34  65 SE15      30.20R
N BAR RANCH    CLOUDY    41  34  75 SE5       30.23R
CHINOOK          N/A     48  41  76 NE5       30.25R
$$

MTZ017>020-022>027-061-062-301700-
NORTHEAST MONTANA

CITY           SKY/WX    TMP DP  RH WIND       PRES   REMARKS
GLASGOW        SUNNY     54  33  45 E15       30.25R
JORDAN           N/A     52  38  58 E7        30.21R
SIDNEY         SUNNY     52  36  54 NE10      30.26S
WOLF POINT     SUNNY     53  34  48 E10       30.27R
PLENTYWOOD       N/A     54  28  37 E14       30.29R
POPLAR           N/A     54  30  40 E12G17    30.27S
SCOBEY           N/A     55  28  35 E12       30.26R
$$

MTZ028>42-056>058-301700-
SOUTHCENTRAL AND SOUTHEAST MONTANA

CITY           SKY/WX    TMP DP  RH WIND       PRES   REMARKS
BAKER          CLOUDY    52  34  50 NE16      30.19R
BILLINGS       CLOUDY    47  37  68 NE10      30.17R
LIVINGSTON     CLOUDY    43  35  73 E16       30.14R
MILES CITY     MOSUNNY   54  38  54 NE14      30.19R
EKALAKA          N/A     49  34  56 NE13      30.13R
FORSYTH          N/A     52  39  62 NE8       30.19R
LAUREL           N/A     45  31  58 NE5       30.14R
ROUNDUP          N/A     46  35  65 NE6       30.09S
$$

REGIONAL REPORTS...DAKOTAS

CITY           SKY/WX    TMP DP  RH WIND       PRES   REMARKS
WILLISTON      SUNNY     57  31  37 E9        30.27S
MINOT          SUNNY     60  30  32 NE15      30.27F
DICKINSON      SUNNY     51  33  50 NE16      30.18S
BEACH            N/A     50  32  50 NE17G24   30.24S
CROSBY           N/A     54  30  40 E12       30.33S
WATFORD CITY     N/A     55  28  35 E17G26    30.26R
BISMARCK       MOSUNNY   52  36  54 E16       30.20S
GRAND FORKS    MOSUNNY   56  29  35 NE18G29   30.27F
FARGO          SUNNY     56  31  38 E23       30.19F
BUFFALO SD       N/A     48  36  63 NE18      30.08R
RAPID CITY     CLOUDY    43  37  79 N15       30.09R
$$

REGIONAL REPORTS...WYOMING/IDAHO/WASHINGTON

CITY           SKY/WX    TMP DP  RH WIND       PRES   REMARKS
GILLETTE       LGT RAIN  39  35  86 NE15      30.12R WCI  31
SHERIDAN       CLOUDY    41  36  82 CALM      30.16R
BUFFALO WY       N/A    N/A N/A N/A MISG      30.15R
CODY           CLOUDY    41  36  81 NE14      30.10R
YELLOWSTONE LA   N/A     36  24  62 MISG      30.08R
IDAHO FALLS    CLOUDY    46  35  65 NE5       30.03R
SALMON         CLOUDY    46  32  57 CALM      30.10S
BOISE          SUNNY     54  37  52 NW20G28   30.06R
SPOKANE        CLOUDY    48  43  82 CALM      30.21R
$$

REGIONAL REPORTS...ALBERTA

CITY           SKY/WX    TMP DP  RH WIND       PRES   REMARKS
EDMONTON       SUNNY     55  34  44 S8        30.21S
CALGARY        CLOUDY    45  32  61 NW3       30.25R
LETHBRIDGE     PTSUNNY   50  37  62 SW5       30.23R
MEDICINE HAT   CLOUDY    54  39  58 E3        30.25R
WATERTON GATE    N/A     48  34  57 E5          N/A
MILK RIVER       N/A     50  37  62 S5          N/A
ONEFOUR          N/A     48  39  71 E10         N/A
$$

REGIONAL REPORTS...SASKATCHEWAN

CITY           SKY/WX    TMP DP  RH WIND       PRES   REMARKS
SWIFT CURRENT  SUNNY     55  27  33 SE15G22   30.27R
REGINA         MOSUNNY   57  27  30 SE13G20   30.34S
SASKATOON      SUNNY     57  28  33 SE10      30.34R
CYPRESS HILLS    N/A     48  32  53 SE9         N/A
VAL MARIE        N/A     55  32  41 SE13        N/A
ROCKGLEN         N/A     52  30  43 SE13G18     N/A
ASSINIBOIA       N/A     57  34  41 S3          N/A
$$




USA.gov is the U.S. government's official web portal to all federal, state and local government web resources and services.